| time (UTC) | temp F | wind direction | speed knots | gust knots | rain 1hr in | rain 24hr in | rain mn in | humidity % | barometer mb |
| 20260503225510 | 66 | 297 | 0.9 | 4.3 | 0.00 | 0.00 | 0.00 | 24 | 1003.9 |
| 20260503224910 | 66 | 259 | 2.6 | 7.0 | 0.00 | 0.00 | 0.00 | 23 | 1003.8 |
| 20260503224513 | 66 | 267 | 0.9 | 2.6 | 0.00 | 0.00 | 0.00 | 25 | 1003.8 |
| 20260503224309 | 66 | 267 | 0.0 | 0.9 | 0.00 | 0.00 | 0.00 | 25 | 1003.8 |
| 20260503223708 | 67 | 294 | 1.7 | 2.6 | 0.00 | 0.00 | 0.00 | 24 | 1003.9 |
| 20260503223108 | 67 | 302 | 0.0 | 1.7 | 0.00 | 0.00 | 0.00 | 22 | 1003.8 |
| 20260503222508 | 67 | 266 | 1.7 | 2.6 | 0.00 | 0.00 | 0.00 | 21 | 1003.8 |
| 20260503221908 | 66 | 308 | 0.9 | 1.7 | 0.00 | 0.00 | 0.00 | 22 | 1003.8 |
| 20260503221308 | 66 | 315 | 0.9 | 1.7 | 0.00 | 0.00 | 0.00 | 21 | 1003.7 |
| 20260503220708 | 66 | 281 | 2.6 | 6.1 | 0.00 | 0.00 | 0.00 | 21 | 1003.8 |
| 20260503220510 | 66 | 298 | 3.5 | 9.6 | 0.00 | 0.00 | 0.00 | 21 | 1003.7 |
| 20260503220108 | 66 | 304 | 2.6 | 9.6 | 0.00 | 0.00 | 0.00 | 21 | 1003.8 |
| 20260503215507 | 66 | 295 | 3.5 | 8.7 | 0.00 | 0.00 | 0.00 | 23 | 1003.8 |
| 20260503214907 | 66 | 279 | 0.9 | 1.7 | 0.00 | 0.00 | 0.00 | 22 | 1003.8 |
| 20260503214519 | 66 | 299 | 2.6 | 7.8 | 0.00 | 0.00 | 0.00 | 21 | 1003.8 |
| 20260503214307 | 66 | 300 | 1.7 | 7.0 | 0.00 | 0.00 | 0.00 | 21 | 1003.9 |
| 20260503213707 | 65 | 316 | 5.2 | 7.8 | 0.00 | 0.00 | 0.00 | 19 | 1004.0 |
| 20260503213107 | 65 | 323 | 3.5 | 7.8 | 0.00 | 0.00 | 0.00 | 21 | 1004.0 |
| 20260503212507 | 65 | 312 | 2.6 | 5.2 | 0.00 | 0.00 | 0.00 | 21 | 1004.1 |
| 20260503211907 | 65 | 309 | 6.1 | 9.6 | 0.00 | 0.00 | 0.00 | 21 | 1004.0 |
| 20260503211307 | 65 | 285 | 5.2 | 9.6 | 0.00 | 0.00 | 0.00 | 19 | 1004.0 |
| 20260503210707 | 65 | 307 | 4.3 | 9.6 | 0.00 | 0.00 | 0.00 | 19 | 1004.1 |
| 20260503210519 | 65 | 309 | 5.2 | 12.2 | 0.00 | 0.00 | 0.00 | 21 | 1004.0 |
| 20260503210107 | 65 | 317 | 1.7 | 5.2 | 0.00 | 0.00 | 0.00 | 21 | 1004.2 |
| 20260503205516 | 65 | 310 | 2.6 | 7.8 | 0.00 | 0.00 | 0.00 | 20 | 1004.1 |
| 20260503204916 | 65 | 267 | 1.7 | 3.5 | 0.00 | 0.00 | 0.00 | 21 | 1004.1 |
| 20260503204518 | 65 | 327 | 1.7 | 3.5 | 0.00 | 0.00 | 0.00 | 20 | 1004.1 |
| 20260503204316 | 65 | 323 | 5.2 | 11.3 | 0.00 | 0.00 | 0.00 | 20 | 1004.3 |
| 20260503203716 | 65 | 298 | 1.7 | 6.1 | 0.00 | 0.00 | 0.00 | 21 | 1004.1 |
| 20260503203116 | 65 | 303 | 1.7 | 6.1 | 0.00 | 0.00 | 0.00 | 19 | 1004.2 |
| 20260503202516 | 66 | 305 | 6.1 | 11.3 | 0.00 | 0.00 | 0.00 | 20 | 1004.2 |
| 20260503201916 | 66 | 289 | 1.7 | 5.2 | 0.00 | 0.00 | 0.00 | 20 | 1004.2 |
| 20260503201316 | 66 | 304 | 2.6 | 6.1 | 0.00 | 0.00 | 0.00 | 20 | 1004.3 |
| 20260503200716 | 66 | 316 | 1.7 | 8.7 | 0.00 | 0.00 | 0.00 | 19 | 1004.3 |
| 20260503200518 | 66 | 319 | 0.9 | 3.5 | 0.00 | 0.00 | 0.00 | 20 | 1004.4 |
| 20260503200115 | 66 | 284 | 0.9 | 2.6 | 0.00 | 0.00 | 0.00 | 20 | 1004.3 |
| 20260503195515 | 65 | 296 | 2.6 | 6.1 | 0.00 | 0.00 | 0.00 | 21 | 1004.4 |
| 20260503194915 | 66 | 307 | 3.5 | 9.6 | 0.00 | 0.00 | 0.00 | 20 | 1004.4 |
| 20260503194517 | 66 | 292 | 4.3 | 7.8 | 0.00 | 0.00 | 0.00 | 21 | 1004.4 |
| 20260503194315 | 66 | 286 | 1.7 | 7.0 | 0.00 | 0.00 | 0.00 | 22 | 1004.4 |
| 20260503193715 | 66 | 338 | 1.7 | 7.0 | 0.00 | 0.00 | 0.00 | 20 | 1004.4 |
| 20260503193115 | 66 | 305 | 4.3 | 7.8 | 0.00 | 0.00 | 0.00 | 21 | 1004.3 |
| 20260503192515 | 66 | 297 | 1.7 | 5.2 | 0.00 | 0.00 | 0.00 | 22 | 1004.4 |
| 20260503191913 | 66 | 302 | 6.1 | 12.2 | 0.00 | 0.00 | 0.00 | 22 | 1004.4 |
| 20260503191314 | 66 | 333 | 6.1 | 11.3 | 0.00 | 0.00 | 0.00 | 22 | 1004.4 |
| 20260503190714 | 66 | 317 | 3.5 | 7.8 | 0.00 | 0.00 | 0.00 | 26 | 1004.5 |
| 20260503190516 | 66 | 318 | 0.9 | 2.6 | 0.00 | 0.00 | 0.00 | 26 | 1004.4 |
| 20260503190113 | 66 | 315 | 5.2 | 8.7 | 0.00 | 0.00 | 0.00 | 26 | 1004.5 |
| 20260503185512 | 66 | 320 | 3.5 | 8.7 | 0.00 | 0.00 | 0.00 | 27 | 1004.6 |
| 20260503184912 | 66 | 285 | 4.3 | 7.8 | 0.00 | 0.00 | 0.00 | 27 | 1004.7 |
| 20260503184515 | 65 | 275 | 1.7 | 2.6 | 0.00 | 0.00 | 0.00 | 29 | 1004.7 |
| 20260503184312 | 65 | 299 | 2.6 | 7.0 | 0.00 | 0.00 | 0.00 | 30 | 1004.6 |
| 20260503183712 | 66 | 304 | 5.2 | 9.6 | 0.00 | 0.00 | 0.00 | 29 | 1004.7 |
| 20260503183112 | 66 | 285 | 3.5 | 7.0 | 0.00 | 0.00 | 0.00 | 28 | 1004.6 |
| 20260503182512 | 66 | 312 | 7.0 | 10.4 | 0.00 | 0.00 | 0.00 | 28 | 1004.7 |
| 20260503181912 | 66 | 308 | 1.7 | 5.2 | 0.00 | 0.00 | 0.00 | 28 | 1004.7 |
| 20260503181312 | 66 | 296 | 5.2 | 9.6 | 0.00 | 0.00 | 0.00 | 31 | 1004.7 |
| 20260503180712 | 66 | 303 | 2.6 | 7.0 | 0.00 | 0.00 | 0.00 | 32 | 1004.8 |
| 20260503180515 | 66 | 308 | 2.6 | 7.0 | 0.00 | 0.00 | 0.00 | 34 | 1004.7 |
| 20260503180112 | 66 | 272 | 1.7 | 7.0 | 0.00 | 0.00 | 0.00 | 32 | 1004.8 |
| 20260503175512 | 65 | 301 | 1.7 | 7.8 | 0.00 | 0.00 | 0.00 | 33 | 1004.8 |
| 20260503174912 | 65 | 271 | 0.9 | 1.7 | 0.00 | 0.00 | 0.00 | 34 | 1004.8 |
| 20260503174515 | 65 | 334 | 3.5 | 7.0 | 0.00 | 0.00 | 0.00 | 33 | 1004.8 |
| 20260503174312 | 65 | 269 | 2.6 | 7.0 | 0.00 | 0.00 | 0.00 | 32 | 1004.9 |
| 20260503173711 | 65 | 289 | 4.3 | 9.6 | 0.00 | 0.00 | 0.00 | 33 | 1004.9 |
| 20260503173111 | 65 | 309 | 5.2 | 8.7 | 0.00 | 0.00 | 0.00 | 35 | 1004.9 |
| 20260503172511 | 65 | 308 | 5.2 | 10.4 | 0.00 | 0.00 | 0.00 | 33 | 1004.9 |
| 20260503171911 | 65 | 310 | 3.5 | 8.7 | 0.00 | 0.00 | 0.00 | 34 | 1004.9 |
| 20260503171311 | 65 | 311 | 5.2 | 9.6 | 0.00 | 0.00 | 0.00 | 33 | 1004.9 |
| 20260503170711 | 65 | 273 | 2.6 | 5.2 | 0.00 | 0.00 | 0.00 | 35 | 1005.0 |
| 20260503170514 | 65 | 305 | 6.1 | 11.3 | 0.00 | 0.00 | 0.00 | 33 | 1004.8 |
| 20260503170111 | 65 | 285 | 2.6 | 11.3 | 0.00 | 0.00 | 0.00 | 33 | 1004.9 |
| 20260503160111 | 63 | 280 | 5.2 | 9.6 | 0.00 | 0.00 | 0.00 | 39 | 1005.0 |
| 20260503150711 | 62 | 275 | 0.0 | 0.9 | 0.00 | 0.00 | 0.00 | 46 | 1005.2 |
| 20260503150513 | 62 | 299 | 0.0 | 0.9 | 0.00 | 0.00 | 0.00 | 45 | 1005.1 |
| 20260503150111 | 62 | 274 | 0.0 | 0.9 | 0.00 | 0.00 | 0.00 | 46 | 1005.0 |
| 20260503140108 | 58 | 215 | 0.0 | 0.9 | 0.00 | 0.00 | 0.00 | 53 | 1005.7 |
| 20260503131315 | 50 | 0 | 0.0 | 0.0 | 0.00 | 0.00 | 0.00 | 77 | 1006.0 |
| 20260503130715 | 49 | 0 | 0.0 | 0.0 | 0.00 | 0.00 | 0.00 | 79 | 1006.0 |
| 20260503130517 | 49 | 0 | 0.0 | 0.0 | 0.00 | 0.00 | 0.00 | 79 | 1006.1 |
| 20260503130114 | 48 | 0 | 0.0 | 0.0 | 0.00 | 0.00 | 0.00 | 80 | 1006.1 |
| 20260503120112 | 46 | 0 | 0.0 | 0.0 | 0.00 | 0.00 | 0.00 | 85 | 1005.7 |
| 20260503110710 | 44 | 0 | 0.0 | 0.0 | 0.00 | 0.00 | 0.00 | 83 | 1005.5 |
| 20260503110512 | 44 | 0 | 0.0 | 0.0 | 0.00 | 0.00 | 0.00 | 83 | 1005.6 |
| 20260503110110 | 44 | 0 | 0.0 | 0.0 | 0.00 | 0.00 | 0.00 | 83 | 1005.6 |
| 20260503100107 | 48 | 0 | 0.0 | 0.0 | 0.00 | 0.00 | 0.00 | 79 | 1005.8 |
| 20260503090117 | 50 | 0 | 0.0 | 0.0 | 0.00 | 0.00 | 0.00 | 74 | 1006.4 |
| 20260503081317 | 50 | 0 | 0.0 | 0.0 | 0.00 | 0.00 | 0.00 | 70 | 1006.8 |
| 20260503080717 | 50 | 0 | 0.0 | 0.0 | 0.00 | 0.00 | 0.00 | 70 | 1006.8 |
| 20260503080520 | 50 | 0 | 0.0 | 0.0 | 0.00 | 0.00 | 0.00 | 71 | 1006.8 |
| 20260503080116 | 50 | 0 | 0.0 | 0.0 | 0.00 | 0.00 | 0.00 | 71 | 1007.0 |
| 20260503072516 | 51 | 0 | 0.0 | 0.0 | 0.00 | 0.00 | 0.00 | 69 | 1007.4 |
| 20260503071916 | 51 | 0 | 0.0 | 0.0 | 0.00 | 0.00 | 0.00 | 68 | 1007.6 |
| 20260503071316 | 51 | 0 | 0.0 | 0.0 | 0.00 | 0.00 | 0.00 | 67 | 1007.6 |
| 20260503070716 | 51 | 0 | 0.0 | 0.0 | 0.00 | 0.00 | 0.00 | 66 | 1007.7 |
| 20260503070519 | 51 | 0 | 0.0 | 0.0 | 0.00 | 0.00 | 0.00 | 66 | 1007.7 |
| 20260503070116 | 51 | 0 | 0.0 | 0.0 | 0.00 | 0.00 | 0.00 | 65 | 1007.8 |
| 20260503060116 | 53 | 0 | 0.0 | 0.0 | 0.00 | 0.00 | 0.00 | 58 | 1008.6 |
| 20260503054916 | 53 | 0 | 0.0 | 0.0 | 0.00 | 0.00 | 0.00 | 56 | 1008.8 |
| 20260503054518 | 53 | 0 | 0.0 | 0.0 | 0.00 | 0.00 | 0.00 | 55 | 1008.8 |
| 20260503054315 | 53 | 0 | 0.0 | 0.0 | 0.00 | 0.00 | 0.00 | 55 | 1008.8 |
| 20260503053715 | 53 | 0 | 0.0 | 0.0 | 0.00 | 0.00 | 0.00 | 53 | 1008.8 |
| 20260503053115 | 53 | 0 | 0.0 | 0.0 | 0.00 | 0.00 | 0.00 | 53 | 1008.7 |
| 20260503052515 | 53 | 0 | 0.0 | 0.0 | 0.00 | 0.00 | 0.00 | 52 | 1008.7 |
| 20260503051915 | 52 | 0 | 0.0 | 0.0 | 0.00 | 0.00 | 0.00 | 51 | 1008.7 |
| 20260503051315 | 52 | 0 | 0.0 | 0.0 | 0.00 | 0.00 | 0.00 | 52 | 1008.7 |
| 20260503050715 | 51 | 0 | 0.0 | 0.0 | 0.00 | 0.00 | 0.00 | 51 | 1008.6 |
| 20260503050517 | 51 | 0 | 0.0 | 0.0 | 0.00 | 0.00 | 0.00 | 52 | 1008.6 |
| 20260503050115 | 51 | 0 | 0.0 | 0.0 | 0.00 | 0.00 | 0.00 | 52 | 1008.7 |
| 20260503045515 | 50 | 0 | 0.0 | 0.0 | 0.00 | 0.00 | 0.00 | 52 | 1008.6 |
| 20260503044915 | 50 | 0 | 0.0 | 0.0 | 0.00 | 0.00 | 0.00 | 54 | 1008.7 |
| 20260503044516 | 49 | 0 | 0.0 | 0.0 | 0.00 | 0.00 | 0.00 | 55 | 1008.6 |
| 20260503044313 | 49 | 0 | 0.0 | 0.0 | 0.00 | 0.00 | 0.00 | 55 | 1008.7 |
| 20260503043713 | 49 | 0 | 0.0 | 0.0 | 0.00 | 0.00 | 0.00 | 56 | 1008.6 |
| 20260503043113 | 49 | 0 | 0.0 | 0.0 | 0.00 | 0.00 | 0.00 | 55 | 1008.6 |
| 20260503042513 | 49 | 0 | 0.0 | 0.0 | 0.00 | 0.00 | 0.00 | 55 | 1008.5 |
| 20260503041913 | 49 | 0 | 0.0 | 0.0 | 0.00 | 0.00 | 0.00 | 54 | 1008.6 |
| 20260503041313 | 49 | 0 | 0.0 | 0.0 | 0.00 | 0.00 | 0.00 | 54 | 1008.6 |
| 20260503040713 | 48 | 0 | 0.0 | 0.0 | 0.00 | 0.00 | 0.00 | 56 | 1008.6 |
| 20260503040519 | 48 | 0 | 0.0 | 0.0 | 0.00 | 0.00 | 0.00 | 56 | 1008.6 |
| 20260503040113 | 48 | 0 | 0.0 | 0.0 | 0.00 | 0.00 | 0.00 | 56 | 1008.6 |
| 20260503035513 | 47 | 0 | 0.0 | 0.0 | 0.00 | 0.00 | 0.00 | 57 | 1008.6 |
| 20260503034913 | 47 | 0 | 0.0 | 0.0 | 0.00 | 0.00 | 0.00 | 55 | 1008.6 |
| 20260503034515 | 47 | 0 | 0.0 | 0.0 | 0.00 | 0.00 | 0.00 | 55 | 1008.6 |
| 20260503034313 | 47 | 0 | 0.0 | 0.0 | 0.00 | 0.00 | 0.00 | 56 | 1008.7 |
| 20260503033713 | 47 | 0 | 0.0 | 0.0 | 0.00 | 0.00 | 0.00 | 56 | 1008.8 |
| 20260503033113 | 47 | 0 | 0.0 | 0.0 | 0.00 | 0.00 | 0.00 | 58 | 1008.9 |
| 20260503032512 | 47 | 0 | 0.0 | 0.0 | 0.00 | 0.00 | 0.00 | 59 | 1009.0 |
| 20260503031911 | 47 | 0 | 0.0 | 0.0 | 0.00 | 0.00 | 0.00 | 60 | 1009.0 |
| 20260503031311 | 47 | 0 | 0.0 | 0.0 | 0.00 | 0.00 | 0.00 | 61 | 1009.1 |
| 20260503030711 | 46 | 0 | 0.0 | 0.0 | 0.00 | 0.00 | 0.00 | 60 | 1009.1 |
| 20260503030513 | 46 | 0 | 0.0 | 0.0 | 0.00 | 0.00 | 0.00 | 60 | 1009.1 |
| 20260503030110 | 46 | 0 | 0.0 | 0.0 | 0.00 | 0.00 | 0.00 | 58 | 1009.2 |
| 20260503025511 | 46 | 0 | 0.0 | 0.0 | 0.00 | 0.00 | 0.00 | 59 | 1009.3 |
| 20260503024911 | 46 | 0 | 0.0 | 0.0 | 0.00 | 0.00 | 0.00 | 59 | 1009.3 |
| 20260503024513 | 46 | 0 | 0.0 | 0.0 | 0.00 | 0.00 | 0.00 | 59 | 1009.3 |
| 20260503024310 | 46 | 0 | 0.0 | 0.0 | 0.00 | 0.00 | 0.00 | 59 | 1009.4 |
| 20260503023710 | 46 | 0 | 0.0 | 0.0 | 0.00 | 0.00 | 0.00 | 59 | 1009.4 |
| 20260503023110 | 46 | 0 | 0.0 | 0.0 | 0.00 | 0.00 | 0.00 | 59 | 1009.5 |
| 20260503022510 | 46 | 0 | 0.0 | 0.0 | 0.00 | 0.00 | 0.00 | 59 | 1009.6 |
| 20260503021910 | 47 | 0 | 0.0 | 0.0 | 0.00 | 0.00 | 0.00 | 59 | 1009.6 |
| 20260503021310 | 47 | 0 | 0.0 | 0.0 | 0.00 | 0.00 | 0.00 | 58 | 1009.5 |
| 20260503020710 | 47 | 0 | 0.0 | 0.0 | 0.00 | 0.00 | 0.00 | 57 | 1009.6 |
| 20260503020513 | 47 | 0 | 0.0 | 0.0 | 0.00 | 0.00 | 0.00 | 56 | 1009.6 |
| 20260503020110 | 47 | 0 | 0.0 | 0.0 | 0.00 | 0.00 | 0.00 | 55 | 1009.6 |
| 20260503015510 | 47 | 0 | 0.0 | 0.0 | 0.00 | 0.00 | 0.00 | 55 | 1009.7 |
| 20260503014910 | 47 | 0 | 0.0 | 0.0 | 0.00 | 0.00 | 0.00 | 55 | 1009.8 |
| 20260503014513 | 47 | 0 | 0.0 | 0.0 | 0.00 | 0.00 | 0.00 | 54 | 1009.8 |
| 20260503014310 | 47 | 0 | 0.0 | 0.0 | 0.00 | 0.00 | 0.00 | 54 | 1009.9 |
| 20260503013710 | 47 | 0 | 0.0 | 0.0 | 0.00 | 0.00 | 0.00 | 55 | 1009.8 |
| 20260503013110 | 47 | 0 | 0.0 | 0.0 | 0.00 | 0.00 | 0.00 | 54 | 1009.9 |
| 20260503012510 | 47 | 0 | 0.0 | 0.0 | 0.00 | 0.00 | 0.00 | 55 | 1009.8 |
| 20260503011910 | 47 | 0 | 0.0 | 0.0 | 0.00 | 0.00 | 0.00 | 55 | 1009.9 |
| 20260503011310 | 47 | 0 | 0.0 | 0.0 | 0.00 | 0.00 | 0.00 | 55 | 1009.9 |
| 20260503010710 | 47 | 0 | 0.0 | 0.0 | 0.00 | 0.00 | 0.00 | 55 | 1009.9 |
| 20260503010513 | 47 | 0 | 0.0 | 0.0 | 0.00 | 0.00 | 0.00 | 56 | 1010.0 |
| 20260503010110 | 47 | 0 | 0.0 | 0.0 | 0.00 | 0.00 | 0.00 | 56 | 1010.0 |
| 20260503005510 | 48 | 0 | 0.0 | 0.0 | 0.00 | 0.00 | 0.00 | 57 | 1009.4 |
| 20260503004910 | 48 | 0 | 0.0 | 0.0 | 0.00 | 0.00 | 0.00 | 57 | 1010.1 |
| 20260503004513 | 49 | 0 | 0.0 | 0.0 | 0.00 | 0.00 | 0.00 | 59 | 1010.2 |
| 20260503004310 | 49 | 0 | 0.0 | 0.0 | 0.00 | 0.00 | 0.00 | 59 | 1010.2 |
| 20260503003710 | 50 | 0 | 0.0 | 0.0 | 0.00 | 0.00 | 0.00 | 56 | 1010.2 |
| 20260503003110 | 50 | 0 | 0.0 | 0.0 | 0.00 | 0.00 | 0.00 | 53 | 1010.2 |
| 20260503002510 | 50 | 0 | 0.0 | 0.0 | 0.00 | 0.00 | 0.00 | 53 | 1010.3 |
| 20260503001910 | 50 | 0 | 0.0 | 0.0 | 0.00 | 0.00 | 0.00 | 55 | 1010.3 |
| 20260503001310 | 49 | 0 | 0.0 | 0.0 | 0.00 | 0.00 | 0.00 | 56 | 1010.3 |
| 20260503000710 | 49 | 0 | 0.0 | 0.0 | 0.00 | 0.00 | 0.00 | 57 | 1010.5 |
| 20260503000513 | 49 | 0 | 0.0 | 0.0 | 0.00 | 0.00 | 0.00 | 58 | 1010.5 |
| 20260503000110 | 49 | 0 | 0.0 | 0.0 | 0.00 | 0.00 | 0.00 | 59 | 1010.6 |
| 20260502235510 | 50 | 0 | 0.0 | 0.0 | 0.00 | 0.00 | 0.00 | 60 | 1010.7 |
| 20260502234910 | 50 | 0 | 0.0 | 0.0 | 0.00 | 0.00 | 0.00 | 62 | 1010.7 |
| 20260502234513 | 51 | 0 | 0.0 | 0.0 | 0.00 | 0.00 | 0.00 | 59 | 1010.7 |
| 20260502234310 | 51 | 0 | 0.0 | 0.0 | 0.00 | 0.00 | 0.00 | 59 | 1010.7 |
| 20260502233710 | 51 | 0 | 0.0 | 0.0 | 0.00 | 0.00 | 0.00 | 59 | 1010.7 |
| 20260502233110 | 52 | 0 | 0.0 | 0.0 | 0.00 | 0.00 | 0.00 | 58 | 1010.8 |
| 20260502232510 | 52 | 0 | 0.0 | 0.0 | 0.00 | 0.00 | 0.00 | 58 | 1010.8 |
| 20260502231910 | 53 | 0 | 0.0 | 0.0 | 0.00 | 0.00 | 0.00 | 55 | 1010.9 |
| 20260502231310 | 54 | 0 | 0.0 | 0.0 | 0.00 | 0.00 | 0.00 | 53 | 1010.8 |
| 20260502230710 | 55 | 0 | 0.0 | 0.0 | 0.00 | 0.00 | 0.00 | 50 | 1010.8 |
| 20260502230512 | 55 | 0 | 0.0 | 0.0 | 0.00 | 0.00 | 0.00 | 49 | 1011.0 |
| 20260502230110 | 56 | 0 | 0.0 | 0.0 | 0.00 | 0.00 | 0.00 | 44 | 1010.9 |